Location: Esterri de Aneo
(42.6284°N, 1.1223°E)
Time: 21:01:57
(UTC+00:00)

Daily predictions for brighter satellites

Satellite Brightness Start Highest point End
(mag) Time Altitude Azimuth Time Altitude Azimuth Time Altitude Azimuth
Okean 1-7 Rocket 4.3 16:48:39 10° N 16:52:37 32° ENE 16:56:31 10° SE
Cosmos 1461 2.7 16:49:37 10° SSW 16:53:29 87° WNW 16:57:26 10° NNE
Cosmos 1602 Rocket 3.7 16:50:21 10° N 16:54:37 49° E 16:58:49 10° SSE
Cosmos 1933 4.0 16:52:18 10° SSE 16:55:41 31° E 16:59:05 10° NNE
YAOGAN 1 4.4 16:58:07 10° ENE 16:59:15 11° ENE 17:00:24 10° NE
BREEZE-M DEB (TANK) 4.4 16:53:53 10° SSW 16:59:29 28° SSE 17:02:08 10° E
NOSS 2-3 (E) 4.0 16:56:44 10° S 17:00:08 33° ESE 17:03:29 10° NE
NOSS 2-3 (D) 4.1 16:57:26 10° S 17:00:48 31° ESE 17:04:07 10° NE
Cosmos 1486 Rocket 4.3 16:56:26 10° SSW 17:01:36 72° WNW 17:06:52 10° NNE
Cosmos 2227 Rocket 2.7 16:56:24 10° N 17:01:36 36° ENE 17:06:45 10° ESE
SJ-12 4.5 16:59:39 10° SE 17:02:58 30° ENE 17:06:20 10° N
IRIDIUM 103 4.4 16:58:49 10° N 17:03:57 56° E 17:09:04 10° SSE
Cosmos 1743 2.2 17:01:51 10° N 17:05:06 82° E 17:08:20 10° S
Cosmos 773 Rocket 4.3 17:00:21 10° NNW 17:05:34 75° WSW 17:10:48 10° SSE
Cosmos 2151 2.9 17:04:34 10° N 17:08:44 68° E 17:12:52 10° SSE
Cosmos 2279 Rocket 4.4 17:03:16 10° SSW 17:09:26 67° W 17:15:39 10° N
IGS 5A 3.7 17:07:58 10° S 17:11:54 70° W 17:15:52 10° NNW
Cosmos 1697 Rocket 2.7 17:06:59 10° SSW 17:12:31 67° ESE 17:18:06 10° NNE
Cosmos 990 Rocket 4.1 17:07:59 10° S 17:12:57 54° ESE 17:17:59 10° NNE
Cosmos 1655 Rocket 4.5 17:08:57 10° N 17:14:40 37° ENE 17:20:20 10° SE
Aureole 1 Rocket 4.3 17:12:09 10° SSE 17:15:37 24° E 17:19:37 11° NE
MOS 1 Rocket 3.8 17:11:04 10° SE 17:15:39 42° ENE 17:20:30 10° N
SAR-Lupe-4 3.8 17:12:56 10° SE 17:16:20 45° ENE 17:19:46 10° N
Cosmos 1867 3.6 17:10:58 10° NNW 17:16:21 57° NE 17:21:41 10° SE
Cosmos 1782 4.3 17:18:24 10° SW 17:21:40 32° WNW 17:24:57 10° N
IRIDIUM 106 4.3 17:17:03 10° N 17:22:18 82° E 17:27:31 10° S
ARIANE 5 R/B 2.5 17:18:00 10° SSE 17:22:59 66° ENE 17:28:05 10° N
Cosmos 1900 4.3 17:19:29 10° NNW 17:24:31 70° NE 17:29:26 10° SE
Cosmos 1607 4.1 17:19:54 10° NW 17:26:10 81° WSW 17:32:28 10° SSE
Cosmos 2084 Rocket 3.3 17:22:30 10° NW 17:26:44 81° NE 17:30:56 10° SE
SAR-Lupe-1 4.1 17:23:41 10° SSE 17:27:12 54° ENE 17:30:44 10° N
Cosmos 1825 Rocket 3.6 17:23:32 10° N 17:27:49 55° E 17:32:01 10° SSE
SOZ 4.3 17:25:40 10° WSW 17:28:32 47° NNW 17:29:40 21° NE
Cosmos 2098 Rocket 4.3 17:25:56 10° SSW 17:29:49 42° WNW 17:34:24 10° N
CZ-2D R/B 4.3 17:30:52 10° SE 17:34:27 28° ENE 17:38:00 10° N
UNK 4.3 17:31:53 10° N 17:36:24 60° WNW 17:40:51 10° SSW
Gbstr 26 Del rocket 3.1 17:33:09 10° WSW 17:37:14 57° NNW 17:39:37 21° NE
NOSS 3-2 (C) 3.9 17:32:35 10° WSW 17:37:25 47° NW 17:43:10 10° NNE
SPOT 1/Viking Rocket 3.8 17:35:06 10° SE 17:40:02 45° ENE 17:44:59 10° N
SMAP 3.7 17:37:28 10° S 17:42:04 60° W 17:46:41 10° NNW
Cosmos 1076 Rocket 3.5 17:41:39 10° N 17:45:53 55° E 17:50:06 10° SSE
Landsat 7 4.1 17:42:13 10° S 17:46:51 70° WSW 17:51:30 10° NNW
IRS-P3 4.0 17:42:14 10° SSE 17:47:31 77° ENE 17:52:51 10° NNW
SJ-6F 4.2 17:43:50 10° SSE 17:47:47 77° ENE 17:51:48 10° N
Cosmos 2058 Rocket 3.5 17:43:48 10° SSE 17:47:58 40° E 17:50:44 19° NNE
Cosmos 2266 Rocket 4.3 17:42:31 10° NNW 17:48:35 66° W 17:54:33 10° S
CZ-4C R/B 3.2 17:41:48 10° NW 17:49:07 80° WSW 17:58:00 10° SSE
COSMO-SKYMED 1 3.0 17:49:12 27° ENE 17:50:35 34° E 17:54:21 10° SSE
Cosmos 2297 Rocket 3.7 17:48:57 10° NW 17:54:10 39° WSW 17:59:23 10° S
SL-16 R/B 4.2 17:55:37 10° SE 17:56:09 11° ESE 17:56:09 11° ESE
Cosmos 1606 Rocket 4.4 17:54:48 10° SSW 17:59:05 52° WNW 18:03:25 10° N
Cosmos 1538 Rocket 4.0 17:56:15 10° NNW 18:01:29 58° ENE 18:06:43 10° SSE
Meteor 1-26 Rocket 4.2 17:56:34 10° SSE 18:01:46 50° E 18:05:35 18° NNE
EXPRESS MD2 2.5 18:00:08 10° SW 18:02:39 76° SSE 18:03:06 60° E
SAR-Lupe-3 4.5 18:05:01 41° NW 18:05:29 49° WNW 18:07:54 10° SSW
Cosmos 1553 Rocket 4.1 18:03:14 10° SSE 18:09:05 49° E 18:14:51 11° NNE
Resurs 1-3 3.5 18:06:40 10° SSE 18:10:51 56° ENE 18:15:04 10° N
BREEZE-M DEB (TANK) 3.2 18:11:03 10° WNW 18:12:05 22° NW 18:12:05 22° NW
Cosmos 2219 3.3 18:08:59 10° NNW 18:14:36 52° ENE 18:17:57 24° SE
Cosmos 1980 Rocket 2.2 18:10:18 10° SSW 18:15:58 85° WNW 18:19:44 22° NNE
Cosmos 1844 Rocket 4.5 18:17:19 10° N 18:18:59 16° NNE 18:18:59 16° NNE
Spot 4 Rocket 3.9 18:17:30 10° SSE 18:22:36 80° ENE 18:27:43 10° NNW
NOSS 2-3 (C) 4.1 18:19:50 10° WSW 18:23:06 38° NW 18:23:55 33° NNW
Cosmos 1898 Rocket 3.3 18:22:58 10° SSW 18:28:06 88° ESE 18:30:11 37° NNE
Cosmos 2369 3.6 18:23:15 10° SSW 18:28:55 70° ESE 18:30:42 44° NE
Cosmos 2263 Rocket 2.2 18:23:36 10° NNW 18:29:18 84° WSW 18:34:59 10° SSE
Okean 1 3.5 18:27:32 10° S 18:30:22 54° SSW 18:30:22 54° SSW
SL-24 R/B - RUBIN 2 4.3 18:26:56 10° S 18:32:02 47° SE 18:32:02 47° SE
Cosmos 1244 Rocket 4.3 18:27:32 10° N 18:33:51 83° E 18:40:03 10° S
OceanSat 1 rocket 4.4 18:29:21 10° SSE 18:34:05 77° ENE 18:38:48 10° N
YAOGAN 1 2.6 18:30:14 10° S 18:34:28 77° WSW 18:38:45 10° NNW
Cosmos-2242 3.2 18:30:50 10° SSW 18:35:01 66° W 18:36:34 37° N
USA 238 DEB 3.8 18:31:54 10° SW 18:37:55 62° NW 18:41:14 30° NNE
USA 238 3.8 18:32:00 10° SW 18:38:01 62° NW 18:41:19 30° NNE
Cosmos 372 Rocket 4.4 18:35:34 10° SSW 18:40:39 58° WNW 18:43:10 29° N
USA 215 4.2 18:41:10 29° NNE 18:41:51 29° NNE 18:47:18 10° NW
Cosmos 2227 Rocket 3.8 18:40:31 10° NW 18:45:34 35° WSW 18:50:36 10° SSW
Cosmos 1937 Rocket 3.4 18:41:42 10° SSW 18:46:53 86° WNW 18:47:29 70° N
SL-08 R/B 4.4 18:42:11 10° N 18:48:32 89° E 18:54:53 10° S
Cosmos 1386 Rocket 4.3 18:47:38 10° N 18:53:44 73° E 18:59:55 10° SSE
Cosmos 2333 Rocket 4.4 18:50:45 10° SSE 18:51:19 13° SSE 18:51:19 13° SSE
Cosmos 967 Rocket 4.4 18:56:26 10° SSW 19:02:46 84° WNW 19:03:36 70° NNE
COSMOS 2455 3.1 19:07:54 10° SSW 19:12:49 62° SSW 19:12:49 62° SSW
SL-16 R/B 4.0 19:36:09 10° SSW 19:38:03 22° SSW 19:38:03 22° SSW
